M I D A S
Marine Information and Data Acquisition System
Tripno 1881 of the Zeeleeuw from 2010-05-19 05:32:55 to 2010-05-19 16:14:19
Back to CruiseResearch ActivitiesStationsMapUnderway DataData graphs

EquipmentUnitsComments
TimeDGPSUTC
LatitudeDGPSDM.mWGS84
LongitudeDGPSDM.mWGS84
SpeedMeteo Stationm/sRelative wind speed
DirectionMeteo StationdegRelative wind direction
TemperatureMeteo Stationdeg CelciusAir temperature
PressureMeteo StationPaAtmospheric pressure
HumidityMeteo Station%Relative humidity
Missing or incorrect values are displayed as -999
Metereological data collected by the RV Zeeleeuw from 2010-05-19 05:11:16 to 2010-05-19 16:22:19
                                                                                    Next 1000 lines
Time Latitude Longitude Speed Direction Temperature Pressure Humidity
2010-05-19 05:11:27 51°13.66 2°55.959 -999 6 8.8 102930 33
2010-05-19 05:11:32 51°13.66 2°55.959 -999 6 8.8 102930 33
2010-05-19 05:11:38 51°13.66 2°55.96 -999 6 8.8 102930 33
2010-05-19 05:11:42 51°13.66 2°55.96 -999 6 8.8 102930 33
2010-05-19 05:11:47 51°13.66 2°55.96 -999 -999 -999 -999 -999
2010-05-19 05:11:52 51°13.66 2°55.96 -999 -999 -999 -999 -999
2010-05-19 05:11:57 51°13.66 2°55.96 -999 357 -999 -999 -999
2010-05-19 05:12:02 51°13.66 2°55.96 -999 345 -999 -999 -999
2010-05-19 05:12:07 51°13.66 2°55.96 -999 283 -999 -999 -999
2010-05-19 05:12:12 51°13.66 2°55.96 -999 345 -999 -999 -999
2010-05-19 05:12:18 51°13.66 2°55.96 -999 283 8.7 -999 19
2010-05-19 05:12:22 51°13.66 2°55.96 -999 345 8.7 -999 19
2010-05-19 05:12:27 51°13.66 2°55.96 -999 283 8.8 -999 37
2010-05-19 05:12:32 51°13.66 2°55.96 -999 345 8.8 -999 37
2010-05-19 05:12:38 51°13.66 2°55.96 -999 283 8.8 102930 36
2010-05-19 05:12:43 51°13.66 2°55.96 -999 339 8.8 102930 36
2010-05-19 05:12:47 51°13.66 2°55.96 -999 283 8.8 102930 36
2010-05-19 05:12:52 51°13.66 2°55.96 -999 339 8.8 102930 36
2010-05-19 05:12:57 51°13.66 2°55.96 -999 339 8.8 102930 36
2010-05-19 05:13:03 51°13.66 2°55.96 -999 339 8.8 102930 36
2010-05-19 05:13:07 51°13.661 2°55.959 -999 282 8.8 102930 35
2010-05-19 05:13:13 51°13.661 2°55.959 -999 339 8.8 102930 35
2010-05-19 05:13:17 51°13.66 2°55.959 -999 339 8.8 102930 35
2010-05-19 05:13:22 51°13.66 2°55.959 -999 339 8.8 102930 35
2010-05-19 05:13:27 51°13.66 2°55.959 -999 283 8.9 102930 35
2010-05-19 05:13:33 51°13.66 2°55.959 -999 339 8.9 102930 35
2010-05-19 05:13:37 51°13.66 2°55.959 -999 339 8.9 102930 35
2010-05-19 05:13:42 51°13.66 2°55.959 -999 339 8.9 102930 35
2010-05-19 05:13:47 51°13.659 2°55.958 -999 283 8.9 102930 34
2010-05-19 05:13:52 51°13.659 2°55.958 -999 339 8.9 102930 34
2010-05-19 05:13:57 51°13.66 2°55.959 -999 339 8.9 102930 35
2010-05-19 05:14:02 51°13.66 2°55.959 -999 339 8.9 102930 35
2010-05-19 05:14:07 51°13.66 2°55.959 -999 283 8.9 102930 35
2010-05-19 05:14:12 51°13.66 2°55.959 -999 339 8.9 102930 35
2010-05-19 05:14:17 51°13.66 2°55.959 -999 282 8.9 102930 35
2010-05-19 05:14:22 51°13.66 2°55.959 -999 339 8.9 102930 35
2010-05-19 05:14:28 51°13.661 2°55.959 -999 282 8.9 102930 35
2010-05-19 05:14:32 51°13.66 2°55.959 -999 339 8.9 102930 35
2010-05-19 05:14:37 51°13.66 2°55.959 -999 282 8.9 102940 35
2010-05-19 05:14:42 51°13.66 2°55.959 -999 339 8.9 102940 35
2010-05-19 05:14:43 51°13.66 2°55.959 -999 339 9 102930 35
2010-05-19 05:14:43 51°13.66 2°55.959 -999 282 9 102930 35
2010-05-19 05:14:43 51°13.66 2°55.959 -999 339 9 102940 35
2010-05-19 05:14:43 51°13.66 2°55.959 -999 339 9 102940 34
2010-05-19 05:14:43 51°13.66 2°55.959 -999 339 9 102930 35
2010-05-19 05:14:43 51°13.66 2°55.959 -999 339 9 102940 34
2010-05-19 05:14:43 51°13.66 2°55.959 -999 339 8.9 102930 35
2010-05-19 05:14:43 51°13.66 2°55.959 -999 339 9 102930 35
2010-05-19 05:14:43 51°13.66 2°55.959 -999 282 9 102940 35
2010-05-19 05:14:43 51°13.66 2°55.959 -999 339 8.9 102930 35
2010-05-19 05:14:43 51°13.66 2°55.959 -999 283 8.9 102930 35
2010-05-19 05:14:43 51°13.66 2°55.959 -999 339 8.9 102930 35
2010-05-19 05:15:47 51°13.66 2°55.959 -999 283 9 102930 34
2010-05-19 05:15:52 51°13.66 2°55.959 -999 339 9 102930 34
2010-05-19 05:15:57 51°13.66 2°55.959 -999 339 9 102940 34
2010-05-19 05:16:02 51°13.66 2°55.959 -999 339 9 102940 34
2010-05-19 05:16:07 51°13.66 2°55.959 -999 339 8.9 102940 34
2010-05-19 05:16:12 51°13.66 2°55.959 -999 339 8.9 102940 34
2010-05-19 05:16:16 51°13.66 2°55.959 -999 282 9 102940 34
2010-05-19 05:16:22 51°13.66 2°55.959 -999 339 9 102940 34
2010-05-19 05:16:27 51°13.66 2°55.959 -999 339 9 102940 33
2010-05-19 05:16:32 51°13.66 2°55.959 -999 339 9 102940 33
2010-05-19 05:16:36 51°13.66 2°55.959 -999 283 9 102930 34
2010-05-19 05:16:42 51°13.66 2°55.959 -999 339 9 102930 34
2010-05-19 05:16:47 51°13.66 2°55.959 -999 339 9 102940 34
2010-05-19 05:16:52 51°13.66 2°55.959 -999 339 9 102940 34
2010-05-19 05:16:56 51°13.66 2°55.959 -999 339 9 102940 34
2010-05-19 05:17:02 51°13.66 2°55.959 -999 339 9 102940 34
2010-05-19 05:17:06 51°13.66 2°55.959 -999 283 9 102940 34
2010-05-19 05:17:12 51°13.66 2°55.959 -999 339 9 102940 34
2010-05-19 05:17:16 51°13.66 2°55.959 -999 339 9 102940 34
2010-05-19 05:17:21 51°13.66 2°55.959 -999 339 9 102940 34
2010-05-19 05:17:26 51°13.66 2°55.959 -999 283 9 102940 34
2010-05-19 05:17:32 51°13.66 2°55.959 -999 339 9 102940 34
2010-05-19 05:17:36 51°13.66 2°55.959 -999 339 9 102940 34
2010-05-19 05:17:41 51°13.66 2°55.959 -999 340 9 102940 34
2010-05-19 05:17:46 51°13.66 2°55.959 -999 283 9 102940 34
2010-05-19 05:17:52 51°13.66 2°55.959 -999 340 9 102940 34
2010-05-19 05:17:56 51°13.66 2°55.959 -999 340 9 102940 34
2010-05-19 05:18:01 51°13.66 2°55.959 -999 340 9 102940 34
2010-05-19 05:18:06 51°13.66 2°55.959 -999 283 9 102940 34
2010-05-19 05:18:12 51°13.66 2°55.959 -999 340 9 102940 34
2010-05-19 05:18:16 51°13.66 2°55.959 -999 282 9 102940 34
2010-05-19 05:18:21 51°13.66 2°55.959 -999 340 9 102940 34
2010-05-19 05:18:26 51°13.66 2°55.959 -999 283 9 102940 34
2010-05-19 05:18:32 51°13.66 2°55.959 -999 340 9 102940 34
2010-05-19 05:18:36 51°13.66 2°55.959 -999 283 9 102940 34
2010-05-19 05:18:41 51°13.66 2°55.959 -999 340 9 102940 34
2010-05-19 05:18:46 51°13.66 2°55.959 -999 283 9 102940 34
2010-05-19 05:18:51 51°13.659 2°55.958 -999 340 9 102940 34
2010-05-19 05:18:56 51°13.658 2°55.958 -999 340 9 102940 34
2010-05-19 05:19:01 51°13.658 2°55.958 -999 340 9 102940 34
2010-05-19 05:19:05 51°13.659 2°55.958 -999 283 9.1 102940 33
2010-05-19 05:19:10 51°13.659 2°55.958 -999 340 9.1 102940 33
2010-05-19 05:19:16 51°13.659 2°55.958 -999 283 9.1 102940 34
2010-05-19 05:19:20 51°13.659 2°55.958 -999 340 9.1 102940 34
2010-05-19 05:19:25 51°13.659 2°55.959 -999 283 9.1 102940 34
2010-05-19 05:19:30 51°13.659 2°55.96 -999 340 9.1 102940 34
2010-05-19 05:19:35 51°13.659 2°55.96 -999 340 9.1 102940 34
2010-05-19 05:19:40 51°13.659 2°55.961 -999 340 9.1 102940 34
2010-05-19 05:19:44 51°13.659 2°55.961 -999 283 9.1 102940 34
2010-05-19 05:19:49 51°13.659 2°55.961 -999 340 9.1 102940 34
2010-05-19 05:19:54 51°13.659 2°55.961 -999 340 9.1 102940 34
2010-05-19 05:19:59 51°13.66 2°55.96 -999 340 9.1 102940 34
2010-05-19 05:20:04 51°13.66 2°55.959 -999 282 9.1 102940 34
2010-05-19 05:20:09 51°13.661 2°55.959 -999 340 9.1 102940 34
2010-05-19 05:20:14 51°13.661 2°55.959 -999 340 9.1 102940 34
2010-05-19 05:20:19 51°13.662 2°55.959 -999 340 9.1 102940 34
2010-05-19 05:20:24 51°13.662 2°55.959 -999 283 9.1 102940 34
2010-05-19 05:20:29 51°13.662 2°55.959 -999 340 9.1 102940 34
2010-05-19 05:20:33 51°13.662 2°55.959 -999 282 9.1 102940 34
2010-05-19 05:20:39 51°13.662 2°55.959 -999 340 9.1 102940 34
2010-05-19 05:20:43 51°13.663 2°55.959 -999 283 9.2 102940 34
2010-05-19 05:20:49 51°13.663 2°55.959 -999 340 9.2 102940 34
2010-05-19 05:20:53 51°13.663 2°55.959 -999 340 9.2 102940 34
2010-05-19 05:20:59 51°13.663 2°55.959 -999 340 9.2 102940 34
2010-05-19 05:21:03 51°13.663 2°55.959 -999 282 9.2 102940 34
2010-05-19 05:21:09 51°13.663 2°55.959 -999 340 9.2 102940 34
2010-05-19 05:21:13 51°13.663 2°55.959 -999 283 9.2 102940 34
2010-05-19 05:21:19 51°13.663 2°55.959 -999 340 9.2 102940 34
2010-05-19 05:21:24 51°13.663 2°55.959 -999 282 9.2 102940 34
2010-05-19 05:21:29 51°13.663 2°55.959 -999 340 9.2 102940 34
2010-05-19 05:21:34 51°13.663 2°55.959 -999 340 9.2 102940 34
2010-05-19 05:21:39 51°13.663 2°55.959 -999 340 9.2 102940 34
2010-05-19 05:21:44 51°13.663 2°55.959 -999 283 9.2 102940 33
2010-05-19 05:21:49 51°13.663 2°55.959 -999 340 9.2 102940 33
2010-05-19 05:21:54 51°13.663 2°55.959 -999 340 9.2 102940 34
2010-05-19 05:21:59 51°13.663 2°55.959 -999 340 9.2 102940 34
2010-05-19 05:22:04 51°13.663 2°55.959 -999 283 9.2 102940 34
2010-05-19 05:22:09 51°13.663 2°55.959 -999 340 9.2 102940 34
2010-05-19 05:22:14 51°13.663 2°55.959 -999 283 9.2 102940 34
2010-05-19 05:22:18 51°13.663 2°55.959 -999 340 9.2 102940 34
2010-05-19 05:22:24 51°13.663 2°55.959 -999 283 9.2 102940 34
2010-05-19 05:22:29 51°13.663 2°55.959 -999 340 9.2 102940 34
2010-05-19 05:22:34 51°13.663 2°55.959 -999 283 9.2 102940 34
2010-05-19 05:22:38 51°13.663 2°55.959 -999 340 9.2 102940 34
2010-05-19 05:22:44 51°13.663 2°55.959 -999 340 9.2 102950 34
2010-05-19 05:22:49 51°13.663 2°55.959 -999 340 9.2 102950 34
2010-05-19 05:22:53 51°13.664 2°55.959 -999 340 9.2 102940 34
2010-05-19 05:22:58 51°13.664 2°55.958 -999 344 9.2 102940 34
2010-05-19 05:23:04 51°13.664 2°55.959 -999 356 9.2 102940 34
2010-05-19 05:23:09 51°13.665 2°55.959 -999 359 9.2 102940 34
2010-05-19 05:23:14 51°13.665 2°55.96 -999 359 9.2 102940 34
2010-05-19 05:23:18 51°13.666 2°55.961 -999 359 9.2 102940 34
2010-05-19 05:23:24 51°13.666 2°55.961 -999 359 9.2 102940 34
2010-05-19 05:23:25 51°13.665 2°55.96 -999 359 9.2 102940 34
2010-05-19 05:23:25 51°13.665 2°55.96 -999 13 9.2 102950 34
2010-05-19 05:23:25 51°13.665 2°55.96 -999 5 9.2 102940 34
2010-05-19 05:23:25 51°13.665 2°55.96 -999 359 9.2 102940 34
2010-05-19 05:23:25 51°13.665 2°55.96 -999 13 9.2 102950 34
2010-05-19 05:23:25 51°13.665 2°55.96 -999 13 9.2 102940 34
2010-05-19 05:23:25 51°13.665 2°55.96 -999 13 9.2 102940 34
2010-05-19 05:23:25 51°13.665 2°55.96 -999 9 9.2 102940 34
2010-05-19 05:23:25 51°13.665 2°55.96 -999 13 9.2 102940 33
2010-05-19 05:23:25 51°13.665 2°55.96 -999 9 9.2 102940 34
2010-05-19 05:23:25 51°13.665 2°55.96 -999 359 9.2 102940 34
2010-05-19 05:23:25 51°13.665 2°55.96 -999 359 9.2 102940 34
2010-05-19 05:24:29 51°13.665 2°55.96 -999 13 9.2 102940 33
2010-05-19 05:24:34 51°13.665 2°55.96 -999 13 9.2 102940 34
2010-05-19 05:24:38 51°13.665 2°55.96 -999 13 9.2 102940 34
2010-05-19 05:24:44 51°13.665 2°55.96 -999 21 9.2 102940 34
2010-05-19 05:24:49 51°13.665 2°55.96 -999 21 9.2 102940 34
2010-05-19 05:24:54 51°13.665 2°55.96 -999 21 9.2 102940 34
2010-05-19 05:24:58 51°13.665 2°55.96 -999 21 9.2 102940 34
2010-05-19 05:25:04 51°13.665 2°55.96 -999 21 9.3 102950 34
2010-05-19 05:25:09 51°13.665 2°55.96 -999 21 9.3 102950 34
2010-05-19 05:25:14 51°13.665 2°55.96 -999 21 9.3 102950 34
2010-05-19 05:25:18 51°13.665 2°55.96 -999 20 9.3 102950 34
2010-05-19 05:25:23 51°13.665 2°55.96 -999 20 9.3 102940 34
2010-05-19 05:25:29 51°13.665 2°55.96 -999 20 9.3 102940 34
2010-05-19 05:25:34 51°13.665 2°55.96 -999 20 9.3 102940 34
2010-05-19 05:25:38 51°13.665 2°55.96 -999 20 9.3 102940 34
2010-05-19 05:25:43 51°13.665 2°55.96 -999 20 9.3 102940 34
2010-05-19 05:25:49 51°13.665 2°55.96 -999 20 9.3 102940 34
2010-05-19 05:25:54 51°13.665 2°55.96 -999 20 9.3 102950 34
2010-05-19 05:25:59 51°13.665 2°55.96 -999 20 9.3 102950 34
2010-05-19 05:26:04 51°13.665 2°55.96 -999 20 9.3 102940 34
2010-05-19 05:26:09 51°13.665 2°55.96 -999 15 9.3 102940 34
2010-05-19 05:26:14 51°13.665 2°55.96 -999 15 9.3 102940 34
2010-05-19 05:26:19 51°13.665 2°55.96 -999 16 9.3 102940 34
2010-05-19 05:26:24 51°13.665 2°55.96 -999 16 9.3 102940 34
2010-05-19 05:26:29 51°13.665 2°55.96 -999 16 9.3 102940 34
2010-05-19 05:26:34 51°13.665 2°55.96 -999 15 9.3 102940 34
2010-05-19 05:26:38 51°13.665 2°55.96 -999 16 9.3 102940 34
2010-05-19 05:26:44 51°13.654 2°55.945 -999 16 9.3 102940 34
2010-05-19 05:26:49 51°13.661 2°55.96 -999 16 9.3 102940 34
2010-05-19 05:26:54 51°13.661 2°55.961 -999 16 9.3 102940 34
2010-05-19 05:26:58 51°13.662 2°55.961 -999 15 9.3 102940 34
2010-05-19 05:27:04 51°13.662 2°55.962 -999 16 9.3 102940 33
2010-05-19 05:27:09 51°13.662 2°55.962 -999 16 9.3 102940 33
2010-05-19 05:27:14 51°13.662 2°55.961 -999 15 9.3 102940 34
2010-05-19 05:27:19 51°13.662 2°55.961 -999 16 9.3 102940 34
2010-05-19 05:27:24 51°13.662 2°55.961 -999 16 9.3 102950 34
2010-05-19 05:27:29 51°13.661 2°55.962 -999 16 9.3 102950 34
2010-05-19 05:27:34 51°13.661 2°55.962 -999 15 9.3 102940 34
2010-05-19 05:27:38 51°13.661 2°55.962 -999 16 9.3 102940 34
2010-05-19 05:27:43 51°13.66 2°55.962 -999 16 9.3 102940 34
2010-05-19 05:27:49 51°13.659 2°55.962 -999 16 9.3 102940 34
2010-05-19 05:27:54 51°13.658 2°55.962 -999 16 9.3 102940 34
2010-05-19 05:27:59 51°13.658 2°55.962 -999 16 9.3 102940 34
2010-05-19 05:28:04 51°13.657 2°55.961 -999 16 9.3 102940 34
2010-05-19 05:28:09 51°13.658 2°55.961 -999 16 9.3 102940 34
2010-05-19 05:28:15 51°13.659 2°55.96 -999 12 9.3 102940 34
2010-05-19 05:28:19 51°13.659 2°55.96 -999 11 9.3 102940 34
2010-05-19 05:28:24 51°13.66 2°55.96 -999 12 9.3 102940 34
2010-05-19 05:28:29 51°13.66 2°55.959 -999 11 9.3 102940 34
2010-05-19 05:28:34 51°13.66 2°55.959 -999 11 9.3 102950 34
2010-05-19 05:28:39 51°13.66 2°55.959 -999 12 9.3 102950 34
2010-05-19 05:28:44 51°13.66 2°55.959 -999 11 9.3 102940 34
2010-05-19 05:28:49 51°13.66 2°55.959 -999 11 9.3 102940 34
2010-05-19 05:28:54 51°13.661 2°55.959 -999 11 9.3 102940 34
2010-05-19 05:28:59 51°13.661 2°55.959 -999 11 9.3 102940 34
2010-05-19 05:29:04 51°13.661 2°55.959 -999 12 9.3 102940 34
2010-05-19 05:29:09 51°13.661 2°55.959 -999 13 9.3 102940 34
2010-05-19 05:29:14 51°13.66 2°55.959 -999 13 9.3 102940 34
2010-05-19 05:29:19 51°13.66 2°55.959 -999 13 9.3 102940 34
2010-05-19 05:29:24 51°13.661 2°55.959 -999 13 9.3 102940 34
2010-05-19 05:29:29 51°13.661 2°55.959 -999 13 9.3 102940 34
2010-05-19 05:29:34 51°13.661 2°55.959 -999 13 9.3 102940 34
2010-05-19 05:29:39 51°13.661 2°55.959 -999 13 9.3 102940 34
2010-05-19 05:29:43 51°13.661 2°55.959 -999 13 9.4 102940 33
2010-05-19 05:29:49 51°13.661 2°55.959 -999 13 9.4 102940 33
2010-05-19 05:29:54 51°13.661 2°55.959 -999 13 9.4 102950 34
2010-05-19 05:29:59 51°13.661 2°55.96 -999 13 9.4 102950 34
2010-05-19 05:30:04 51°13.661 2°55.96 -999 13 9.4 102940 34
2010-05-19 05:30:09 51°13.661 2°55.96 -999 13 9.4 102940 34
2010-05-19 05:30:14 51°13.661 2°55.96 -999 13 9.4 102940 34
2010-05-19 05:30:19 51°13.661 2°55.96 -999 13 9.4 102940 34
2010-05-19 05:30:24 51°13.661 2°55.96 -999 13 9.4 102940 34
2010-05-19 05:30:29 51°13.661 2°55.96 -999 13 9.4 102940 34
2010-05-19 05:30:34 51°13.661 2°55.96 -999 13 9.4 102940 34
2010-05-19 05:30:39 51°13.661 2°55.96 -999 13 9.4 102940 34
2010-05-19 05:30:44 51°13.661 2°55.96 -999 13 9.4 102940 34
2010-05-19 05:30:49 51°13.661 2°55.96 -999 13 9.4 102940 34
2010-05-19 05:30:54 51°13.661 2°55.961 -999 13 9.4 102950 34
2010-05-19 05:30:59 51°13.661 2°55.961 -999 13 9.4 102950 34
2010-05-19 05:31:04 51°13.661 2°55.961 -999 13 9.4 102950 34
2010-05-19 05:31:09 51°13.661 2°55.961 -999 13 9.4 102950 34
2010-05-19 05:31:14 51°13.661 2°55.961 -999 13 9.4 102940 34
2010-05-19 05:31:19 51°13.661 2°55.96 -999 13 9.4 102940 34
2010-05-19 05:31:24 51°13.661 2°55.96 -999 13 9.4 102940 34
2010-05-19 05:31:29 51°13.661 2°55.96 -999 13 9.4 102940 34
2010-05-19 05:31:34 51°13.661 2°55.96 -999 13 9.4 102940 34
2010-05-19 05:31:39 51°13.661 2°55.961 -999 13 9.4 102940 34
2010-05-19 05:31:44 51°13.661 2°55.961 -999 13 9.4 102940 34
2010-05-19 05:31:49 51°13.661 2°55.961 -999 13 9.4 102940 34
2010-05-19 05:31:54 51°13.661 2°55.961 -999 13 9.4 102940 34
2010-05-19 05:31:59 51°13.661 2°55.961 -999 13 9.4 102940 34
2010-05-19 05:32:04 51°13.661 2°55.961 -999 13 9.4 102950 34
2010-05-19 05:32:09 51°13.66 2°55.961 -999 13 9.4 102950 34
2010-05-19 05:32:14 51°13.66 2°55.961 -999 13 9.4 102940 34
2010-05-19 05:32:19 51°13.66 2°55.961 -999 13 9.4 102940 34
2010-05-19 05:32:24 51°13.66 2°55.961 -999 13 9.4 102940 33
2010-05-19 05:32:29 51°13.66 2°55.961 -999 13 9.4 102940 33
2010-05-19 05:32:34 51°13.66 2°55.96 -999 13 9.4 102940 34
2010-05-19 05:32:39 51°13.66 2°55.96 -999 13 9.4 102940 34
2010-05-19 05:32:44 51°13.66 2°55.96 -999 13 9.4 102940 34
2010-05-19 05:32:49 51°13.66 2°55.96 -999 13 9.4 102940 34
2010-05-19 05:32:54 51°13.66 2°55.96 -999 13 9.4 102940 34
2010-05-19 05:32:59 51°13.66 2°55.96 -999 13 9.4 102940 34
2010-05-19 05:33:04 51°13.66 2°55.959 -999 13 9.4 102950 34
2010-05-19 05:33:09 51°13.66 2°55.957 -999 13 9.4 102950 34
2010-05-19 05:33:14 51°13.661 2°55.955 -999 13 9.4 102940 34
2010-05-19 05:33:19 51°13.662 2°55.952 -999 40 9.4 102940 34
2010-05-19 05:33:24 51°13.662 2°55.948 -999 77 9.4 102940 34
2010-05-19 05:33:30 51°13.664 2°55.942 -999 34 9.4 102940 34
2010-05-19 05:33:35 51°13.665 2°55.936 -999 78 9.4 102950 34
2010-05-19 05:33:41 51°13.667 2°55.928 -999 40 9.4 102950 34
2010-05-19 05:33:47 51°13.669 2°55.92 0.1 78 9.4 102940 34
2010-05-19 05:33:52 51°13.671 2°55.912 0.1 35 9.4 102940 34
2010-05-19 05:33:58 51°13.673 2°55.902 0.1 24 9.5 102950 34
2010-05-19 05:34:03 51°13.675 2°55.893 0.1 34 9.5 102950 34
2010-05-19 05:34:07 51°13.677 2°55.885 1.1 81 9.5 102940 34
2010-05-19 05:34:13 51°13.679 2°55.874 1.3 31 9.5 102940 34
2010-05-19 05:34:18 51°13.681 2°55.865 0.7 82 9.5 102950 34
2010-05-19 05:34:23 51°13.683 2°55.856 0.6 33 9.5 102950 34
2010-05-19 05:34:27 51°13.684 2°55.849 0.3 77 9.5 102940 36
2010-05-19 05:34:33 51°13.686 2°55.839 0.1 33 9.5 102940 36
2010-05-19 05:34:38 51°13.688 2°55.83 0.5 76 9.5 102950 34
2010-05-19 05:34:43 51°13.689 2°55.822 0.4 37 9.5 102950 34
2010-05-19 05:34:47 51°13.689 2°55.816 0.3 20 9.5 102940 34
2010-05-19 05:34:53 51°13.691 2°55.807 0.1 34 9.5 102940 34
2010-05-19 05:34:58 51°13.692 2°55.799 0.1 23 9.4 102940 32
2010-05-19 05:35:03 51°13.694 2°55.792 0.1 34 9.4 102940 32
2010-05-19 05:35:07 51°13.695 2°55.786 0.1 78 9.4 102950 33
2010-05-19 05:35:12 51°13.696 2°55.779 -999 34 9.4 102950 33
2010-05-19 05:35:17 51°13.698 2°55.772 -999 78 9.4 102940 36
2010-05-19 05:35:22 51°13.699 2°55.766 -999 35 9.4 102940 36
2010-05-19 05:35:27 51°13.7 2°55.76 -999 80 9.4 102940 34
2010-05-19 05:35:31 51°13.7 2°55.755 0.7 33 9.4 102940 34
2010-05-19 05:35:36 51°13.701 2°55.751 0.5 74 9.4 102950 34
2010-05-19 05:35:41 51°13.701 2°55.748 0.2 40 9.4 102950 34
2010-05-19 05:35:46 51°13.702 2°55.747 0.1 36 9.4 102950 34
2010-05-19 05:35:51 51°13.702 2°55.746 0.1 36 9.4 102950 34
2010-05-19 05:35:56 51°13.702 2°55.746 0.1 36 9.4 102940 36
2010-05-19 05:36:01 51°13.703 2°55.746 -999 36 9.4 102940 36
2010-05-19 05:36:06 51°13.703 2°55.746 -999 36 9.4 102940 34
2010-05-19 05:36:11 51°13.704 2°55.746 -999 36 9.4 102940 34
2010-05-19 05:36:15 51°13.704 2°55.746 -999 36 9.4 102940 34
2010-05-19 05:36:20 51°13.705 2°55.747 -999 22 9.4 102940 34
2010-05-19 05:36:25 51°13.706 2°55.748 0.1 19 9.4 102940 34
2010-05-19 05:36:30 51°13.707 2°55.749 0.1 19 9.4 102940 34
2010-05-19 05:36:35 51°13.708 2°55.75 0.1 19 9.4 102950 34
2010-05-19 05:36:39 51°13.709 2°55.751 -999 19 9.4 102950 34
2010-05-19 05:36:44 51°13.71 2°55.752 -999 19 9.4 102940 34
2010-05-19 05:36:49 51°13.711 2°55.752 -999 20 9.4 102940 34
2010-05-19 05:36:54 51°13.711 2°55.752 -999 21 9.4 102940 34
2010-05-19 05:36:59 51°13.711 2°55.752 -999 38 9.4 102940 34
2010-05-19 05:37:04 51°13.71 2°55.751 0.1 21 9.4 102950 34
2010-05-19 05:37:09 51°13.709 2°55.749 0.1 38 9.4 102950 34
2010-05-19 05:37:14 51°13.708 2°55.748 0.1 78 9.4 102950 34
2010-05-19 05:37:19 51°13.706 2°55.746 0.1 32 9.4 102950 34
2010-05-19 05:37:24 51°13.704 2°55.745 0.1 78 9.4 102940 34
2010-05-19 05:37:30 51°13.703 2°55.743 0.1 35 9.4 102940 34
2010-05-19 05:37:35 51°13.701 2°55.742 -999 24 9.5 102940 34
2010-05-19 05:37:41 51°13.701 2°55.741 0.1 34 9.5 102940 34
2010-05-19 05:37:47 51°13.702 2°55.741 0.1 77 9.5 102940 33
2010-05-19 05:37:52 51°13.703 2°55.741 -999 34 9.5 102940 33
2010-05-19 05:37:58 51°13.706 2°55.741 -999 34 9.5 102940 34
2010-05-19 05:38:03 51°13.708 2°55.74 0.1 324 9.5 102940 34
2010-05-19 05:38:08 51°13.711 2°55.739 0.1 282 9.5 102940 34
2010-05-19 05:38:12 51°13.715 2°55.737 0.1 323 9.5 102940 34
2010-05-19 05:38:18 51°13.72 2°55.734 0.7 286 9.5 102940 34
2010-05-19 05:38:23 51°13.725 2°55.73 0.9 328 9.5 102940 34
2010-05-19 05:38:27 51°13.729 2°55.727 1.4 278 9.5 102940 34
2010-05-19 05:38:32 51°13.735 2°55.722 1.4 334 9.5 102940 34
2010-05-19 05:38:37 51°13.742 2°55.716 1.5 284 9.6 102940 32
2010-05-19 05:38:42 51°13.749 2°55.71 2.1 330 9.6 102940 32
2010-05-19 05:38:47 51°13.757 2°55.704 1.8 283 9.6 102940 35
2010-05-19 05:38:51 51°13.763 2°55.699 1.9 330 9.6 102940 35
2010-05-19 05:38:56 51°13.77 2°55.692 2 330 9.6 102940 36
2010-05-19 05:39:01 51°13.778 2°55.685 2.1 329 9.6 102940 36
2010-05-19 05:39:06 51°13.785 2°55.677 1.9 280 9.6 102940 33
2010-05-19 05:39:11 51°13.793 2°55.67 1.9 329 9.6 102940 33
2010-05-19 05:39:15 51°13.799 2°55.663 1.7 283 9.6 102940 36
2010-05-19 05:39:20 51°13.806 2°55.655 1.3 329 9.6 102940 36
2010-05-19 05:39:25 51°13.813 2°55.647 1.6 284 9.6 102940 33
2010-05-19 05:39:30 51°13.821 2°55.64 1.7 328 9.6 102940 33
2010-05-19 05:39:35 51°13.829 2°55.632 1.3 282 9.6 102940 33
2010-05-19 05:39:40 51°13.836 2°55.626 1.8 330 9.6 102940 33
2010-05-19 05:39:45 51°13.844 2°55.619 2.3 330 9.6 102940 33
2010-05-19 05:39:50 51°13.852 2°55.613 2.1 330 9.6 102940 33
2010-05-19 05:39:55 51°13.86 2°55.607 2.2 331 9.6 102940 33
2010-05-19 05:39:59 51°13.866 2°55.602 2.1 329 9.6 102940 33
2010-05-19 05:40:04 51°13.874 2°55.597 2.2 279 9.6 102940 34
2010-05-19 05:40:09 51°13.882 2°55.591 2 331 9.6 102940 34
2010-05-19 05:40:14 51°13.889 2°55.584 1.7 278 9.6 102940 33
2010-05-19 05:40:19 51°13.896 2°55.578 1.8 331 9.6 102940 33
2010-05-19 05:40:24 51°13.903 2°55.572 1.5 278 9.6 102940 33
2010-05-19 05:40:29 51°13.91 2°55.566 1.9 332 9.6 102940 33
2010-05-19 05:40:34 51°13.917 2°55.56 1.7 283 9.7 102940 33
2010-05-19 05:40:39 51°13.923 2°55.554 1.7 330 9.7 102940 33
2010-05-19 05:40:44 51°13.929 2°55.549 1.7 330 9.7 102940 36
2010-05-19 05:40:49 51°13.935 2°55.543 0.9 334 9.7 102940 36
2010-05-19 05:40:54 51°13.941 2°55.537 1.1 334 9.7 102940 33
2010-05-19 05:40:59 51°13.947 2°55.532 1.2 332 9.7 102940 33
2010-05-19 05:41:04 51°13.953 2°55.527 1.1 333 9.7 102940 33
2010-05-19 05:41:09 51°13.959 2°55.522 0.8 333 9.7 102940 33
2010-05-19 05:41:14 51°13.964 2°55.518 1.2 282 9.7 102940 34
2010-05-19 05:41:19 51°13.97 2°55.513 1 331 9.7 102940 34
2010-05-19 05:41:24 51°13.975 2°55.509 0.8 284 9.7 102940 36
2010-05-19 05:41:29 51°13.981 2°55.505 1.3 336 9.7 102940 36
2010-05-19 05:41:34 51°13.986 2°55.5 1.3 278 9.7 102940 36
2010-05-19 05:41:39 51°13.992 2°55.496 1 339 9.7 102940 36
2010-05-19 05:41:44 51°13.998 2°55.493 1.4 282 9.8 102940 36
2010-05-19 05:41:49 51°14.004 2°55.489 1.4 334 9.8 102940 36
2010-05-19 05:41:54 51°14.01 2°55.486 1.1 336 9.8 102940 35
2010-05-19 05:41:59 51°14.016 2°55.483 1.1 333 9.8 102940 35
2010-05-19 05:42:04 51°14.022 2°55.48 0.9 286 9.8 102940 34
2010-05-19 05:42:09 51°14.028 2°55.477 1.2 333 9.8 102940 34
2010-05-19 05:42:14 51°14.034 2°55.475 1.3 282 9.8 102940 32
2010-05-19 05:42:19 51°14.04 2°55.472 1.3 335 9.8 102940 32
2010-05-19 05:42:24 51°14.046 2°55.469 1.4 287 9.8 102940 35
2010-05-19 05:42:29 51°14.052 2°55.466 1.7 335 9.8 102940 35
2010-05-19 05:42:34 51°14.059 2°55.464 1.1 283 9.8 102940 33
2010-05-19 05:42:39 51°14.065 2°55.461 1.5 335 9.8 102940 33
2010-05-19 05:42:44 51°14.071 2°55.458 2.3 329 9.8 102940 33
2010-05-19 05:42:49 51°14.077 2°55.455 1.6 338 9.8 102940 33
2010-05-19 05:42:54 51°14.084 2°55.452 1.8 329 9.9 102940 35
2010-05-19 05:42:59 51°14.09 2°55.448 3 328 9.9 102940 35
2010-05-19 05:43:04 51°14.096 2°55.445 2.8 328 9.9 102940 35
2010-05-19 05:43:09 51°14.102 2°55.441 2.6 330 9.9 102940 35
2010-05-19 05:43:14 51°14.109 2°55.437 2.7 277 9.9 102940 33
2010-05-19 05:43:19 51°14.115 2°55.434 3 331 9.9 102940 33
2010-05-19 05:43:23 51°14.12 2°55.431 2.8 283 9.9 102940 34
2010-05-19 05:43:29 51°14.127 2°55.426 2.8 332 9.9 102940 34
2010-05-19 05:43:34 51°14.133 2°55.422 2.7 280 10 102940 36
2010-05-19 05:43:39 51°14.139 2°55.418 3.1 328 10 102940 36
2010-05-19 05:43:44 51°14.146 2°55.413 2.9 279 10 102940 34
2010-05-19 05:43:49 51°14.152 2°55.408 3.2 327 10 102940 34
2010-05-19 05:43:54 51°14.159 2°55.403 3.4 326 10 102940 33
2010-05-19 05:43:59 51°14.166 2°55.397 3.2 328 10 102940 33
2010-05-19 05:44:04 51°14.173 2°55.391 3.3 329 10 102940 35
2010-05-19 05:44:09 51°14.18 2°55.384 3.5 328 10 102940 35
2010-05-19 05:44:14 51°14.188 2°55.377 3.5 284 10 102940 35
2010-05-19 05:44:19 51°14.196 2°55.369 3.6 331 10 102940 35
2010-05-19 05:44:24 51°14.204 2°55.36 3.8 281 10 102940 35
2010-05-19 05:44:29 51°14.212 2°55.351 3.4 332 10 102940 35
2010-05-19 05:44:34 51°14.221 2°55.342 3.8 285 10 102940 33
2010-05-19 05:44:39 51°14.229 2°55.332 3.9 330 10 102940 33
2010-05-19 05:44:44 51°14.239 2°55.322 4.1 285 10 102940 34
2010-05-19 05:44:49 51°14.248 2°55.311 4.6 330 10 102940 34
2010-05-19 05:44:54 51°14.257 2°55.301 4.4 330 10.1 102940 34
2010-05-19 05:44:59 51°14.267 2°55.29 4.6 329 10.1 102940 34
2010-05-19 05:45:04 51°14.277 2°55.279 4.8 286 10.1 102940 33
2010-05-19 05:45:09 51°14.287 2°55.267 4.4 332 10.1 102940 33
2010-05-19 05:45:14 51°14.297 2°55.256 4.5 284 10.1 102940 33
2010-05-19 05:45:19 51°14.307 2°55.245 4.5 331 10.1 102940 33
2010-05-19 05:45:24 51°14.317 2°55.233 4.8 332 10.1 102930 33
2010-05-19 05:45:29 51°14.327 2°55.221 4.3 331 10.1 102930 33
2010-05-19 05:45:34 51°14.338 2°55.21 4.4 285 10.1 102930 34
2010-05-19 05:45:39 51°14.348 2°55.198 4.1 330 10.1 102930 34
2010-05-19 05:45:44 51°14.358 2°55.187 4.5 280 10.1 102930 31
2010-05-19 05:45:49 51°14.368 2°55.175 4.5 332 10.1 102930 31
2010-05-19 05:45:54 51°14.378 2°55.163 4.2 332 10.1 102940 34
2010-05-19 05:45:59 51°14.388 2°55.15 4.2 331 10.1 102940 34
2010-05-19 05:46:04 51°14.398 2°55.137 3.6 286 10.1 102940 33
2010-05-19 05:46:09 51°14.408 2°55.124 4.2 334 10.1 102940 33
2010-05-19 05:46:14 51°14.418 2°55.11 4.3 284 10.1 102940 35
2010-05-19 05:46:19 51°14.428 2°55.096 4.7 333 10.1 102940 35
2010-05-19 05:46:24 51°14.439 2°55.082 4.7 284 10.1 102930 33
2010-05-19 05:46:29 51°14.449 2°55.068 4.8 333 10.1 102930 33
2010-05-19 05:46:34 51°14.46 2°55.055 4.8 331 10.2 102940 35
2010-05-19 05:46:39 51°14.472 2°55.042 4.9 331 10.2 102940 35
2010-05-19 05:46:44 51°14.484 2°55.03 5.1 282 10.2 102940 33
2010-05-19 05:46:49 51°14.496 2°55.018 5.5 331 10.2 102940 33
2010-05-19 05:46:54 51°14.509 2°55.006 5.2 331 10.2 102930 33
2010-05-19 05:46:59 51°14.522 2°54.994 5.4 333 10.2 102930 33
2010-05-19 05:47:04 51°14.536 2°54.981 5.6 278 10.2 102940 33
2010-05-19 05:47:09 51°14.55 2°54.969 5.4 333 10.2 102940 33
2010-05-19 05:47:14 51°14.564 2°54.956 5.9 287 10.2 102930 34
2010-05-19 05:47:19 51°14.579 2°54.942 5.9 335 10.2 102930 34
2010-05-19 05:47:24 51°14.594 2°54.929 5.7 333 10.2 102940 35
2010-05-19 05:47:29 51°14.609 2°54.915 5.8 335 10.2 102940 35
2010-05-19 05:47:34 51°14.624 2°54.902 5.6 284 10.2 102940 33
2010-05-19 05:47:39 51°14.64 2°54.887 6.2 335 10.2 102940 33
2010-05-19 05:47:44 51°14.655 2°54.871 6.3 335 10.2 102930 33
2010-05-19 05:47:49 51°14.669 2°54.854 6.2 335 10.2 102930 33
2010-05-19 05:47:54 51°14.684 2°54.836 5.8 335 10.2 102930 33
2010-05-19 05:47:59 51°14.698 2°54.818 5.9 334 10.2 102930 33
2010-05-19 05:48:04 51°14.714 2°54.801 6.2 284 10.2 102930 34
2010-05-19 05:48:09 51°14.73 2°54.785 6.3 333 10.2 102930 34
2010-05-19 05:48:14 51°14.746 2°54.769 6.4 283 10.2 102930 33
2010-05-19 05:48:19 51°14.762 2°54.754 6.7 333 10.2 102930 33
2010-05-19 05:48:24 51°14.779 2°54.739 6.1 279 10.2 102930 33
2010-05-19 05:48:29 51°14.796 2°54.725 6.2 333 10.2 102930 33
2010-05-19 05:48:34 51°14.813 2°54.71 6.6 333 10.2 102930 35
2010-05-19 05:48:39 51°14.83 2°54.695 6.5 333 10.2 102930 35
2010-05-19 05:48:44 51°14.846 2°54.679 6.2 287 10.2 102930 33
2010-05-19 05:48:49 51°14.863 2°54.664 6.1 334 10.2 102930 33
2010-05-19 05:48:54 51°14.879 2°54.648 6.6 334 10.2 102930 35
2010-05-19 05:48:59 51°14.896 2°54.633 6.8 335 10.2 102930 35
2010-05-19 05:49:04 51°14.912 2°54.615 6.6 280 10.3 102940 34
2010-05-19 05:49:09 51°14.927 2°54.598 6.8 335 10.3 102940 34
2010-05-19 05:49:14 51°14.942 2°54.579 6.2 333 10.3 102940 33
2010-05-19 05:49:19 51°14.957 2°54.561 6.2 333 10.3 102940 33
2010-05-19 05:49:24 51°14.971 2°54.541 6 278 10.3 102930 33
2010-05-19 05:49:29 51°14.986 2°54.522 5.8 335 10.3 102930 33
2010-05-19 05:49:34 51°15 2°54.503 6.3 333 10.3 102930 34
2010-05-19 05:49:39 51°15.015 2°54.484 6.4 334 10.3 102930 34
2010-05-19 05:49:44 51°15.03 2°54.465 6.4 333 10.3 102930 33
2010-05-19 05:49:49 51°15.044 2°54.446 6.7 332 10.3 102930 33
2010-05-19 05:49:54 51°15.059 2°54.426 6.6 335 10.3 102940 35
2010-05-19 05:49:59 51°15.074 2°54.407 6.3 334 10.3 102940 35
2010-05-19 05:50:04 51°15.089 2°54.388 6.7 333 10.3 102940 33
2010-05-19 05:50:09 51°15.104 2°54.369 6.3 333 10.3 102940 33
2010-05-19 05:50:14 51°15.118 2°54.349 6.2 333 10.3 102930 34
2010-05-19 05:50:19 51°15.133 2°54.329 6.3 333 10.3 102930 34
2010-05-19 05:50:24 51°15.147 2°54.309 6 334 10.3 102930 33
2010-05-19 05:50:29 51°15.162 2°54.289 6.6 333 10.3 102930 33
2010-05-19 05:50:34 51°15.176 2°54.269 6.4 332 10.3 102940 34
2010-05-19 05:50:39 51°15.19 2°54.249 6 333 10.3 102940 34
2010-05-19 05:50:44 51°15.205 2°54.229 5.8 332 10.3 102940 33
2010-05-19 05:50:49 51°15.22 2°54.211 7.2 336 10.3 102940 33
2010-05-19 05:50:54 51°15.235 2°54.192 6.4 334 10.3 102940 34
2010-05-19 05:50:59 51°15.251 2°54.174 6.3 336 10.3 102940 34
2010-05-19 05:51:04 51°15.266 2°54.156 6.1 334 10.3 102940 33
2010-05-19 05:51:09 51°15.282 2°54.138 6.1 335 10.3 102940 33
2010-05-19 05:51:14 51°15.298 2°54.121 6.5 335 10.3 102940 34
2010-05-19 05:51:19 51°15.314 2°54.104 6.3 335 10.3 102940 34
2010-05-19 05:51:24 51°15.33 2°54.087 6.2 334 10.3 102930 35
2010-05-19 05:51:29 51°15.346 2°54.07 6.4 335 10.3 102930 35
2010-05-19 05:51:34 51°15.362 2°54.054 6.7 336 10.3 102930 34
2010-05-19 05:51:39 51°15.378 2°54.037 6.4 335 10.3 102930 34
2010-05-19 05:51:44 51°15.394 2°54.02 6 336 10.3 102930 35
2010-05-19 05:51:49 51°15.41 2°54.003 5.9 334 10.3 102930 35
2010-05-19 05:51:54 51°15.425 2°53.985 6 334 10.3 102930 33
2010-05-19 05:51:59 51°15.441 2°53.967 5.6 333 10.3 102930 33
2010-05-19 05:52:03 51°15.453 2°53.952 5.6 334 10.3 102930 33
2010-05-19 05:52:09 51°15.471 2°53.93 6.2 334 10.3 102930 33
2010-05-19 05:52:14 51°15.486 2°53.912 6 334 10.4 102940 34
2010-05-19 05:52:19 51°15.501 2°53.894 6.1 335 10.4 102940 34
2010-05-19 05:52:24 51°15.516 2°53.875 6.3 335 10.4 102930 33
2010-05-19 05:52:29 51°15.532 2°53.856 5.9 336 10.4 102930 33
2010-05-19 05:52:34 51°15.547 2°53.838 6.4 335 10.4 102940 34
2010-05-19 05:52:39 51°15.562 2°53.819 5.9 335 10.4 102940 34
2010-05-19 05:52:44 51°15.577 2°53.8 6.1 335 10.3 102930 34
2010-05-19 05:52:49 51°15.593 2°53.783 5.8 335 10.3 102930 34
2010-05-19 05:52:54 51°15.608 2°53.764 5.6 334 10.4 102930 33
2010-05-19 05:52:59 51°15.624 2°53.746 6.2 335 10.4 102930 33
2010-05-19 05:53:04 51°15.639 2°53.728 5.6 335 10.3 102930 33
2010-05-19 05:53:09 51°15.655 2°53.71 5.8 336 10.3 102930 33
2010-05-19 05:53:14 51°15.671 2°53.692 5.7 336 10.4 102930 33
2010-05-19 05:53:19 51°15.686 2°53.675 6.5 337 10.4 102930 33
2010-05-19 05:53:24 51°15.702 2°53.657 5.8 336 10.4 102920 33
2010-05-19 05:53:29 51°15.717 2°53.639 6 337 10.4 102920 33
2010-05-19 05:53:34 51°15.733 2°53.621 6 336 10.4 102930 34
2010-05-19 05:53:39 51°15.748 2°53.603 6 337 10.4 102930 34
2010-05-19 05:53:44 51°15.764 2°53.585 6 281 10.4 102930 33
2010-05-19 05:53:49 51°15.779 2°53.567 6.1 338 10.4 102930 33
2010-05-19 05:53:54 51°15.795 2°53.55 5.9 336 10.3 102930 35
2010-05-19 05:53:59 51°15.81 2°53.532 5.8 337 10.3 102930 35
2010-05-19 05:54:04 51°15.826 2°53.515 6.1 338 10.4 102930 34
2010-05-19 05:54:09 51°15.841 2°53.497 5.8 339 10.4 102930 34
2010-05-19 05:54:14 51°15.858 2°53.482 5.5 338 10.3 102920 34
2010-05-19 05:54:19 51°15.875 2°53.466 5.9 337 10.3 102920 34
2010-05-19 05:54:24 51°15.892 2°53.453 6.3 337 10.3 102930 33
2010-05-19 05:54:29 51°15.909 2°53.439 6.2 338 10.3 102930 33
2010-05-19 05:54:34 51°15.927 2°53.427 6.4 337 10.3 102930 34
2010-05-19 05:54:39 51°15.945 2°53.416 6.2 337 10.3 102930 34
2010-05-19 05:54:44 51°15.963 2°53.405 5.9 336 10.4 102930 33
2010-05-19 05:54:49 51°15.981 2°53.395 6.2 335 10.4 102930 33
2010-05-19 05:54:54 51°16 2°53.385 5.9 336 10.4 102920 34
2010-05-19 05:54:59 51°16.018 2°53.375 6.6 336 10.4 102920 34
2010-05-19 05:55:04 51°16.037 2°53.366 6.1 337 10.4 102920 33
2010-05-19 05:55:09 51°16.055 2°53.357 6.3 335 10.4 102920 33
2010-05-19 05:55:14 51°16.074 2°53.348 6.6 335 10.4 102920 33
2010-05-19 05:55:19 51°16.092 2°53.339 6.1 334 10.4 102920 33
2010-05-19 05:55:24 51°16.111 2°53.329 6 336 10.3 102920 34
2010-05-19 05:55:29 51°16.13 2°53.321 6 335 10.3 102920 34
2010-05-19 05:55:34 51°16.148 2°53.312 6.1 334 10.4 102920 33
2010-05-19 05:55:39 51°16.167 2°53.302 6.3 333 10.4 102920 33
2010-05-19 05:55:44 51°16.185 2°53.293 6.7 333 10.4 102930 33
2010-05-19 05:55:49 51°16.204 2°53.284 6.1 335 10.4 102930 33
2010-05-19 05:55:54 51°16.223 2°53.274 6.1 334 10.4 102930 33
2010-05-19 05:55:59 51°16.241 2°53.265 6.5 337 10.4 102930 33
2010-05-19 05:56:04 51°16.26 2°53.256 6.2 335 10.4 102920 35
2010-05-19 05:56:09 51°16.278 2°53.246 6.6 334 10.4 102920 35
2010-05-19 05:56:14 51°16.297 2°53.237 6.6 334 10.4 102930 35
2010-05-19 05:56:19 51°16.315 2°53.226 6.2 334 10.4 102930 35
2010-05-19 05:56:24 51°16.334 2°53.217 6.6 334 10.4 102920 33
2010-05-19 05:56:29 51°16.352 2°53.205 6.2 334 10.4 102920 33
2010-05-19 05:56:34 51°16.371 2°53.195 6.3 333 10.4 102930 34
2010-05-19 05:56:39 51°16.389 2°53.184 6.6 334 10.4 102930 34
2010-05-19 05:56:43 51°16.404 2°53.175 6.3 334 10.4 102930 34
2010-05-19 05:56:49 51°16.426 2°53.162 6.6 333 10.4 102930 34
2010-05-19 05:56:54 51°16.444 2°53.152 6.8 334 10.4 102930 33
2010-05-19 05:56:59 51°16.462 2°53.141 7.4 334 10.4 102930 33
2010-05-19 05:57:04 51°16.481 2°53.131 6.9 334 10.4 102930 33
2010-05-19 05:57:09 51°16.499 2°53.12 6.3 334 10.4 102930 33
2010-05-19 05:57:14 51°16.517 2°53.109 6.8 334 10.4 102930 33
2010-05-19 05:57:19 51°16.536 2°53.098 6.2 335 10.4 102930 33
2010-05-19 05:57:24 51°16.554 2°53.088 6.6 334 10.4 102930 34
2010-05-19 05:57:29 51°16.573 2°53.077 6.4 334 10.4 102930 34
2010-05-19 05:57:34 51°16.591 2°53.067 6.6 335 10.4 102930 35
2010-05-19 05:57:39 51°16.61 2°53.056 6.3 335 10.4 102930 35
2010-05-19 05:57:44 51°16.628 2°53.046 6.3 334 10.4 102930 35
2010-05-19 05:57:49 51°16.647 2°53.034 6 334 10.4 102930 35
2010-05-19 05:57:54 51°16.665 2°53.024 6.3 333 10.4 102930 33
2010-05-19 05:57:59 51°16.684 2°53.014 6.7 333 10.4 102930 33
2010-05-19 05:58:04 51°16.703 2°53.003 6.7 334 10.4 102930 33
2010-05-19 05:58:09 51°16.721 2°52.992 6.2 334 10.4 102930 33
2010-05-19 05:58:14 51°16.74 2°52.982 6 334 10.4 102930 33
2010-05-19 05:58:19 51°16.758 2°52.971 6.4 334 10.4 102930 33
2010-05-19 05:58:24 51°16.777 2°52.96 6.8 335 10.4 102930 33
2010-05-19 05:58:29 51°16.795 2°52.95 6.6 333 10.4 102930 33
2010-05-19 05:58:34 51°16.814 2°52.939 6.9 333 10.4 102930 33
2010-05-19 05:58:39 51°16.832 2°52.929 6.4 334 10.4 102930 33
2010-05-19 05:58:44 51°16.851 2°52.918 6.5 284 10.4 102930 34
2010-05-19 05:58:49 51°16.869 2°52.907 6 334 10.4 102930 34
2010-05-19 05:58:54 51°16.887 2°52.896 6.4 335 10.4 102930 34
2010-05-19 05:58:59 51°16.905 2°52.886 6.3 337 10.4 102930 34
2010-05-19 05:59:04 51°16.923 2°52.874 6.4 335 10.4 102930 32
2010-05-19 05:59:09 51°16.942 2°52.863 6.5 335 10.4 102930 32
2010-05-19 05:59:14 51°16.96 2°52.851 6.5 336 10.4 102930 35
2010-05-19 05:59:19 51°16.978 2°52.84 6.2 335 10.4 102930 35
2010-05-19 05:59:24 51°16.997 2°52.829 6.2 336 10.4 102940 33
2010-05-19 05:59:29 51°17.016 2°52.819 6.7 335 10.4 102940 33
2010-05-19 05:59:34 51°17.035 2°52.809 6.5 336 10.4 102940 33
2010-05-19 05:59:39 51°17.054 2°52.798 6 336 10.4 102940 33
2010-05-19 05:59:44 51°17.073 2°52.787 5.9 335 10.4 102930 35
2010-05-19 05:59:49 51°17.091 2°52.776 6 335 10.4 102930 35
2010-05-19 05:59:54 51°17.11 2°52.764 6.6 335 10.4 102930 33
2010-05-19 05:59:59 51°17.129 2°52.753 6.3 334 10.4 102930 33
2010-05-19 06:00:04 51°17.147 2°52.741 6.4 334 10.4 102940 35
2010-05-19 06:00:09 51°17.166 2°52.73 5.8 335 10.4 102940 35
2010-05-19 06:00:14 51°17.184 2°52.719 6.6 335 10.4 102940 34
2010-05-19 06:00:19 51°17.203 2°52.708 6.5 336 10.4 102940 34
2010-05-19 06:00:24 51°17.221 2°52.697 6.5 335 10.4 102930 35
2010-05-19 06:00:29 51°17.24 2°52.686 6.7 336 10.4 102930 35
2010-05-19 06:00:34 51°17.259 2°52.674 6.6 337 10.4 102940 34
2010-05-19 06:00:39 51°17.277 2°52.663 6.7 337 10.4 102940 34
2010-05-19 06:00:44 51°17.295 2°52.651 6 335 10.4 102930 33
2010-05-19 06:00:49 51°17.314 2°52.64 6.5 335 10.4 102930 33
2010-05-19 06:00:54 51°17.332 2°52.628 6.6 335 10.4 102930 34
2010-05-19 06:00:59 51°17.351 2°52.616 6.2 335 10.4 102930 34
2010-05-19 06:01:04 51°17.369 2°52.605 6 335 10.4 102930 35
2010-05-19 06:01:09 51°17.388 2°52.593 6.7 335 10.4 102930 35
2010-05-19 06:01:14 51°17.406 2°52.582 6.9 333 10.4 102940 33
2010-05-19 06:01:19 51°17.425 2°52.572 6.1 335 10.4 102940 33
2010-05-19 06:01:24 51°17.444 2°52.562 6.4 334 10.3 102930 33
2010-05-19 06:01:29 51°17.463 2°52.554 6.7 335 10.3 102930 33
2010-05-19 06:01:34 51°17.482 2°52.545 5.9 335 10.4 102940 35
2010-05-19 06:01:39 51°17.501 2°52.537 6.8 337 10.4 102940 35
2010-05-19 06:01:44 51°17.521 2°52.532 6.1 335 10.4 102940 32
2010-05-19 06:01:49 51°17.541 2°52.526 6 336 10.4 102940 32
2010-05-19 06:01:54 51°17.56 2°52.523 6.4 336 10.3 102930 33
2010-05-19 06:01:59 51°17.58 2°52.518 6.3 335 10.3 102930 33
2010-05-19 06:02:04 51°17.6 2°52.515 6.8 335 10.3 102940 34
2010-05-19 06:02:09 51°17.62 2°52.511 6.4 333 10.3 102940 34
2010-05-19 06:02:14 51°17.64 2°52.509 6.1 333 10.3 102940 34
2010-05-19 06:02:19 51°17.66 2°52.507 6.4 332 10.3 102940 34
2010-05-19 06:02:24 51°17.679 2°52.505 7.1 333 10.4 102930 35
2010-05-19 06:02:29 51°17.699 2°52.503 6.8 335 10.4 102930 35
2010-05-19 06:02:34 51°17.719 2°52.501 6.6 334 10.4 102930 34
2010-05-19 06:02:39 51°17.739 2°52.499 6 334 10.4 102930 34
2010-05-19 06:02:44 51°17.759 2°52.497 6.5 334 10.4 102930 35
2010-05-19 06:02:49 51°17.779 2°52.494 7 334 10.4 102930 35
2010-05-19 06:02:54 51°17.799 2°52.492 6.8 334 10.4 102930 33
2010-05-19 06:02:59 51°17.819 2°52.49 6.7 333 10.4 102930 33
2010-05-19 06:03:04 51°17.839 2°52.488 6.6 333 10.4 102940 35
2010-05-19 06:03:09 51°17.859 2°52.485 6.2 333 10.4 102940 35
2010-05-19 06:03:14 51°17.879 2°52.483 6.9 333 10.4 102940 35
2010-05-19 06:03:19 51°17.899 2°52.481 6.3 332 10.4 102940 35
2010-05-19 06:03:23 51°17.915 2°52.479 6.6 332 10.4 102940 33
2010-05-19 06:03:29 51°17.939 2°52.476 6.3 333 10.4 102940 33
2010-05-19 06:03:34 51°17.959 2°52.474 6.3 333 10.4 102940 34
2010-05-19 06:03:39 51°17.979 2°52.473 6.4 333 10.4 102940 34
2010-05-19 06:03:43 51°17.995 2°52.472 6.4 333 10.4 102940 35
2010-05-19 06:03:49 51°18.019 2°52.471 6.9 331 10.4 102940 35
2010-05-19 06:03:54 51°18.039 2°52.471 6.8 331 10.4 102940 33
2010-05-19 06:03:59 51°18.059 2°52.471 6.2 331 10.4 102940 33
2010-05-19 06:04:03 51°18.075 2°52.471 7.1 332 10.4 102940 34
2010-05-19 06:04:09 51°18.099 2°52.472 6.9 332 10.4 102940 34
2010-05-19 06:04:14 51°18.119 2°52.472 6.6 332 10.4 102940 34
2010-05-19 06:04:19 51°18.139 2°52.472 6.4 331 10.4 102940 34
2010-05-19 06:04:24 51°18.159 2°52.472 6.1 332 10.4 102940 32
2010-05-19 06:04:29 51°18.179 2°52.472 6.4 332 10.4 102940 32
2010-05-19 06:04:34 51°18.199 2°52.472 6.7 331 10.4 102940 33
2010-05-19 06:04:39 51°18.219 2°52.472 6.2 332 10.4 102940 33
2010-05-19 06:04:44 51°18.239 2°52.472 6.7 332 10.4 102940 34
2010-05-19 06:04:49 51°18.259 2°52.472 6.5 331 10.4 102940 34
2010-05-19 06:04:54 51°18.279 2°52.472 6.1 332 10.4 102940 33
2010-05-19 06:04:59 51°18.3 2°52.472 7.1 332 10.4 102940 33
2010-05-19 06:05:04 51°18.32 2°52.472 6.2 333 10.4 102940 35
2010-05-19 06:05:09 51°18.34 2°52.472 6 333 10.4 102940 35
2010-05-19 06:05:14 51°18.36 2°52.472 6.2 333 10.4 102940 35
2010-05-19 06:05:19 51°18.38 2°52.472 6.7 332 10.4 102940 35
2010-05-19 06:05:23 51°18.396 2°52.472 6.4 332 10.4 102940 35
2010-05-19 06:05:29 51°18.42 2°52.472 6.5 332 10.4 102940 35
2010-05-19 06:05:34 51°18.44 2°52.471 6.2 332 10.3 102940 34
2010-05-19 06:05:39 51°18.46 2°52.472 6.7 333 10.3 102940 34
2010-05-19 06:05:43 51°18.476 2°52.471 6.6 333 10.3 102940 33
2010-05-19 06:05:49 51°18.5 2°52.472 5.9 332 10.3 102940 33
2010-05-19 06:05:54 51°18.52 2°52.471 6.9 332 10.3 102930 33
2010-05-19 06:05:59 51°18.54 2°52.471 6.2 331 10.3 102930 33
2010-05-19 06:06:03 51°18.556 2°52.471 6.4 331 10.3 102940 35
2010-05-19 06:06:09 51°18.58 2°52.473 6.9 331 10.3 102940 35
2010-05-19 06:06:14 51°18.6 2°52.475 6.2 331 10.3 102940 34
2010-05-19 06:06:19 51°18.621 2°52.479 6.4 329 10.3 102940 34
2010-05-19 06:06:24 51°18.641 2°52.483 6.7 331 10.3 102940 35
2010-05-19 06:06:29 51°18.661 2°52.488 6.3 329 10.3 102940 35
2010-05-19 06:06:34 51°18.681 2°52.492 6.9 330 10.3 102940 35
2010-05-19 06:06:39 51°18.701 2°52.498 6.2 330 10.3 102940 35
2010-05-19 06:06:44 51°18.72 2°52.503 6.6 330 10.3 102940 34
2010-05-19 06:06:49 51°18.74 2°52.51 6.7 330 10.3 102940 34
2010-05-19 06:06:54 51°18.76 2°52.516 6.5 331 10.3 102940 35
2010-05-19 06:06:59 51°18.78 2°52.522 7.1 331 10.3 102940 35
2010-05-19 06:07:04 51°18.8 2°52.529 6.3 330 10.4 102940 32
2010-05-19 06:07:09 51°18.82 2°52.535 6.5 332 10.4 102940 32
2010-05-19 06:07:14 51°18.84 2°52.541 5.9 331 10.4 102940 33
2010-05-19 06:07:19 51°18.86 2°52.547 6.1 331 10.4 102940 33
2010-05-19 06:07:24 51°18.88 2°52.553 6.5 330 10.3 102940 34
2010-05-19 06:07:29 51°18.9 2°52.558 6.6 330 10.3 102940 34
2010-05-19 06:07:34 51°18.92 2°52.564 6.5 330 10.4 102940 33
2010-05-19 06:07:39 51°18.939 2°52.57 6.7 330 10.4 102940 33
2010-05-19 06:07:43 51°18.955 2°52.574 6.2 331 10.4 102940 34
2010-05-19 06:07:49 51°18.979 2°52.581 6.8 331 10.4 102940 34
2010-05-19 06:07:54 51°18.999 2°52.587 6.3 330 10.4 102940 34
2010-05-19 06:07:59 51°19.019 2°52.593 6.1 331 10.4 102940 34
2010-05-19 06:08:03 51°19.035 2°52.597 7 331 10.4 102940 34
2010-05-19 06:08:09 51°19.059 2°52.604 6.2 331 10.4 102940 34
2010-05-19 06:08:14 51°19.079 2°52.609 6.7 331 10.4 102940 35
2010-05-19 06:08:19 51°19.098 2°52.615 6.1 331 10.4 102940 35
2010-05-19 06:08:23 51°19.114 2°52.619 6.1 330 10.4 102940 35
2010-05-19 06:08:29 51°19.138 2°52.626 6.4 332 10.4 102940 35
2010-05-19 06:08:34 51°19.158 2°52.632 6.1 332 10.4 102940 33
2010-05-19 06:08:39 51°19.178 2°52.637 6.9 332 10.4 102940 33
2010-05-19 06:08:44 51°19.198 2°52.642 6.8 331 10.4 102940 33
2010-05-19 06:08:49 51°19.218 2°52.648 7 331 10.4 102940 33
2010-05-19 06:08:54 51°19.238 2°52.653 6.4 332 10.4 102940 33
2010-05-19 06:08:59 51°19.258 2°52.658 6.6 332 10.4 102940 33
2010-05-19 06:09:04 51°19.278 2°52.664 6.2 332 10.4 102940 33
2010-05-19 06:09:09 51°19.298 2°52.668 6.3 331 10.4 102940 33
2010-05-19 06:09:14 51°19.318 2°52.674 6.9 332 10.4 102940 34
2010-05-19 06:09:19 51°19.338 2°52.679 6.6 332 10.4 102940 34
2010-05-19 06:09:24 51°19.358 2°52.684 6.4 282 10.4 102940 35
2010-05-19 06:09:29 51°19.378 2°52.69 7 333 10.4 102940 35
2010-05-19 06:09:34 51°19.398 2°52.695 6.5 332 10.4 102940 34
2010-05-19 06:09:39 51°19.418 2°52.7 6.7 333 10.4 102940 34
2010-05-19 06:09:43 51°19.434 2°52.704 6.3 332 10.3 102930 34
2010-05-19 06:09:49 51°19.458 2°52.711 6.8 332 10.3 102930 34
2010-05-19 06:09:54 51°19.478 2°52.716 6.8 332 10.3 102940 34
2010-05-19 06:09:59 51°19.497 2°52.722 6.2 331 10.3 102940 34
2010-05-19 06:10:03 51°19.514 2°52.726 6.1 332 10.3 102940 35
2010-05-19 06:10:09 51°19.537 2°52.733 6.8 332 10.3 102940 35
2010-05-19 06:10:14 51°19.557 2°52.737 7.3 333 10.3 102940 35
2010-05-19 06:10:19 51°19.577 2°52.743 6.6 332 10.3 102940 35
2010-05-19 06:10:23 51°19.593 2°52.747 6.7 332 10.4 102940 34
2010-05-19 06:10:29 51°19.617 2°52.754 6.7 334 10.4 102940 34
2010-05-19 06:10:34 51°19.637 2°52.759 6.5 334 10.4 102940 34
2010-05-19 06:10:39 51°19.656 2°52.764 6 334 10.4 102940 34
2010-05-19 06:10:43 51°19.672 2°52.769 6.3 334 10.4 102940 35
2010-05-19 06:10:49 51°19.696 2°52.774 6.8 333 10.4 102940 35
2010-05-19 06:10:54 51°19.716 2°52.78 6.1 334 10.4 102930 33
2010-05-19 06:10:59 51°19.736 2°52.785 6.5 334 10.4 102930 33
2010-05-19 06:11:03 51°19.752 2°52.79 6.9 333 10.4 102940 35
2010-05-19 06:11:09 51°19.775 2°52.796 6.4 333 10.4 102940 35
2010-05-19 06:11:14 51°19.795 2°52.802 6.4 333 10.3 102940 33
2010-05-19 06:11:19 51°19.815 2°52.807 6.6 334 10.3 102940 33
2010-05-19 06:11:24 51°19.835 2°52.812 6.3 335 10.4 102940 34
2010-05-19 06:11:29 51°19.854 2°52.818 6.5 335 10.4 102940 34
2010-05-19 06:11:34 51°19.874 2°52.823 6.3 334 10.4 102930 34
2010-05-19 06:11:39 51°19.894 2°52.828 6.3 334 10.4 102930 34
2010-05-19 06:11:44 51°19.913 2°52.833 7.1 334 10.3 102940 35
2010-05-19 06:11:49 51°19.933 2°52.839 6.7 334 10.3 102940 35
2010-05-19 06:11:54 51°19.953 2°52.844 6.6 335 10.4 102940 35
2010-05-19 06:11:59 51°19.973 2°52.849 6.6 335 10.4 102940 35
2010-05-19 06:12:04 51°19.992 2°52.854 6.5 334 10.4 102940 33
2010-05-19 06:12:09 51°20.012 2°52.859 6.3 335 10.4 102940 33
2010-05-19 06:12:14 51°20.031 2°52.864 6.7 335 10.3 102930 34
2010-05-19 06:12:19 51°20.051 2°52.869 6.1 335 10.3 102930 34
2010-05-19 06:12:24 51°20.071 2°52.874 6.7 334 10.3 102940 33
2010-05-19 06:12:29 51°20.09 2°52.88 6.3 334 10.3 102940 33
2010-05-19 06:12:34 51°20.11 2°52.885 6 334 10.3 102930 35
2010-05-19 06:12:39 51°20.13 2°52.89 6.1 334 10.3 102930 35
2010-05-19 06:12:44 51°20.149 2°52.895 6.5 335 10.3 102930 33
2010-05-19 06:12:49 51°20.169 2°52.899 7.1 335 10.3 102930 33
2010-05-19 06:12:54 51°20.188 2°52.904 6.7 336 10.3 102930 34
2010-05-19 06:12:59 51°20.208 2°52.91 6.1 334 10.3 102930 34
2010-05-19 06:13:04 51°20.227 2°52.914 6.6 334 10.3 102940 34
2010-05-19 06:13:09 51°20.247 2°52.92 6.6 335 10.3 102940 34
2010-05-19 06:13:14 51°20.266 2°52.925 6.7 335 10.4 102930 33
2010-05-19 06:13:19 51°20.286 2°52.93 6.8 335 10.4 102930 33
2010-05-19 06:13:24 51°20.305 2°52.934 6.4 336 10.4 102940 33
2010-05-19 06:13:29 51°20.325 2°52.94 6.8 335 10.4 102940 33
2010-05-19 06:13:34 51°20.344 2°52.944 6.6 335 10.3 102930 33
2010-05-19 06:13:39 51°20.364 2°52.95 6.5 336 10.3 102930 33
2010-05-19 06:13:44 51°20.383 2°52.955 6.5 335 10.4 102930 34
2010-05-19 06:13:49 51°20.402 2°52.96 7 334 10.4 102930 34
2010-05-19 06:13:54 51°20.421 2°52.966 6.4 336 10.4 102930 35
2010-05-19 06:13:59 51°20.441 2°52.973 6 335 10.4 102930 35
2010-05-19 06:14:04 51°20.46 2°52.98 6.6 335 10.3 102930 35
2010-05-19 06:14:09 51°20.479 2°52.987 6.7 334 10.3 102930 35
2010-05-19 06:14:14 51°20.499 2°52.994 6.5 335 10.3 102930 33
2010-05-19 06:14:19 51°20.517 2°53.003 6.4 335 10.3 102930 33
2010-05-19 06:14:23 51°20.533 2°53.009 6.8 335 10.3 102930 34
2010-05-19 06:14:29 51°20.556 2°53.019 6.8 335 10.3 102930 34
2010-05-19 06:14:34 51°20.575 2°53.027 6.8 334 10.3 102930 33
2010-05-19 06:14:39 51°20.594 2°53.035 6.5 335 10.3 102930 33
2010-05-19 06:14:44 51°20.613 2°53.043 6.5 334 10.3 102930 34
2010-05-19 06:14:49 51°20.632 2°53.052 6.5 336 10.3 102930 34
2010-05-19 06:14:54 51°20.651 2°53.06 6.3 336 10.3 102940 35
2010-05-19 06:14:59 51°20.67 2°53.067 6.5 337 10.3 102940 35
2010-05-19 06:15:04 51°20.689 2°53.076 6.5 335 10.3 102930 33
2010-05-19 06:15:09 51°20.708 2°53.084 6.8 336 10.3 102930 33
2010-05-19 06:15:14 51°20.727 2°53.092 6.3 335 10.3 102940 33
2010-05-19 06:15:19 51°20.747 2°53.1 6.8 335 10.3 102940 33
2010-05-19 06:15:24 51°20.766 2°53.109 6.5 336 10.3 102940 33
2010-05-19 06:15:29 51°20.785 2°53.117 7 335 10.3 102940 33
2010-05-19 06:15:34 51°20.804 2°53.125 6.1 335 10.3 102930 33
2010-05-19 06:15:39 51°20.823 2°53.133 6.8 335 10.3 102930 33
2010-05-19 06:15:44 51°20.842 2°53.141 6.4 335 10.3 102930 34
2010-05-19 06:15:49 51°20.861 2°53.149 6.5 335 10.3 102930 34
2010-05-19 06:15:54 51°20.88 2°53.157 6.7 335 10.3 102930 34
2010-05-19 06:15:59 51°20.899 2°53.165 7.1 335 10.3 102930 34
2010-05-19 06:16:04 51°20.919 2°53.173 6.1 335 10.3 102930 34
2010-05-19 06:16:09 51°20.938 2°53.181 6.5 334 10.3 102930 34
2010-05-19 06:16:14 51°20.957 2°53.189 6.5 334 10.3 102930 33
2010-05-19 06:16:19 51°20.976 2°53.196 6.4 333 10.3 102930 33
2010-05-19 06:16:24 51°20.995 2°53.204 6.2 334 10.3 102930 35
2010-05-19 06:16:29 51°21.015 2°53.212 6.3 333 10.3 102930 35
2010-05-19 06:16:34 51°21.034 2°53.22 6.9 332 10.3 102940 33
2010-05-19 06:16:39 51°21.053 2°53.227 6.6 335 10.3 102940 33
2010-05-19 06:16:43 51°21.069 2°53.233 6.4 335 10.3 102940 35
2010-05-19 06:16:49 51°21.092 2°53.243 6.6 335 10.3 102940 35
2010-05-19 06:16:54 51°21.111 2°53.251 6.6 334 10.4 102940 33
2010-05-19 06:16:59 51°21.13 2°53.259 6.5 334 10.4 102940 33
2010-05-19 06:17:03 51°21.146 2°53.265 6.2 335 10.4 102940 34
2010-05-19 06:17:09 51°21.169 2°53.275 6.5 335 10.4 102940 34
2010-05-19 06:17:14 51°21.188 2°53.283 6.6 335 10.4 102940 34
2010-05-19 06:17:19 51°21.208 2°53.291 6 336 10.4 102940 34
2010-05-19 06:17:24 51°21.227 2°53.299 6.2 335 10.4 102930 33
2010-05-19 06:17:29 51°21.246 2°53.307 6.5 335 10.4 102930 33
2010-05-19 06:17:34 51°21.265 2°53.315 6.7 336 10.4 102930 34
2010-05-19 06:17:39 51°21.285 2°53.324 6.8 335 10.4 102930 34
2010-05-19 06:17:44 51°21.303 2°53.334 6.9 336 10.4 102940 32
2010-05-19 06:17:49 51°21.323 2°53.343 6.7 336 10.4 102940 32
2010-05-19 06:17:54 51°21.341 2°53.355 7.1 334 10.4 102930 34
2010-05-19 06:17:59 51°21.36 2°53.366 6.7 335 10.4 102930 34
2010-05-19 06:18:04 51°21.379 2°53.378 6.4 335 10.3 102930 34
2010-05-19 06:18:09 51°21.398 2°53.389 6.1 334 10.3 102930 34
2010-05-19 06:18:14 51°21.416 2°53.402 6.6 336 10.3 102930 35
2010-05-19 06:18:19 51°21.434 2°53.415 6.4 334 10.3 102930 35
2010-05-19 06:18:24 51°21.453 2°53.429 7 334 10.3 102930 34
2010-05-19 06:18:29 51°21.47 2°53.443 6.5 333 10.3 102930 34
2010-05-19 06:18:34 51°21.489 2°53.457 6.6 333 10.3 102930 34
2010-05-19 06:18:39 51°21.507 2°53.472 6.9 334 10.3 102930 34
2010-05-19 06:18:44 51°21.524 2°53.487 6.2 334 10.3 102930 33
2010-05-19 06:18:49 51°21.542 2°53.502 6.8 334 10.3 102930 33
2010-05-19 06:18:54 51°21.56 2°53.516 6.6 334 10.3 102940 33
2010-05-19 06:18:59 51°21.578 2°53.53 6.9 335 10.3 102940 33
2010-05-19 06:19:04 51°21.595 2°53.545 6.7 335 10.3 102940 34
2010-05-19 06:19:09 51°21.613 2°53.559 6.4 334 10.3 102940 34
2010-05-19 06:19:14 51°21.631 2°53.574 6.4 333 10.3 102940 34
2010-05-19 06:19:19 51°21.649 2°53.589 7 334 10.3 102940 34
2010-05-19 06:19:24 51°21.667 2°53.603 6.2 334 10.3 102930 33
2010-05-19 06:19:29 51°21.685 2°53.618 6.3 334 10.3 102930 33
2010-05-19 06:19:34 51°21.703 2°53.633 7.1 285 10.3 102940 33
2010-05-19 06:19:39 51°21.721 2°53.647 6.7 333 10.3 102940 33
2010-05-19 06:19:44 51°21.739 2°53.661 6.3 333 10.4 102930 33
2010-05-19 06:19:49 51°21.757 2°53.676 6.9 334 10.4 102930 33
2010-05-19 06:19:54 51°21.775 2°53.69 6.6 335 10.4 102930 33
2010-05-19 06:19:59 51°21.793 2°53.705 7.2 334 10.4 102930 33
2010-05-19 06:20:04 51°21.811 2°53.719 6.5 335 10.4 102940 33
2010-05-19 06:20:09 51°21.829 2°53.734 6.9 335 10.4 102940 33
2010-05-19 06:20:14 51°21.847 2°53.748 7.2 333 10.4 102940 34
2010-05-19 06:20:19 51°21.865 2°53.762 6.4 336 10.4 102940 34
2010-05-19 06:20:24 51°21.883 2°53.777 6.6 335 10.4 102940 32
2010-05-19 06:20:29 51°21.901 2°53.791 7 334 10.4 102940 32
2010-05-19 06:20:34 51°21.919 2°53.805 6.5 334 10.4 102940 35
2010-05-19 06:20:39 51°21.937 2°53.819 6.9 335 10.4 102940 35
2010-05-19 06:20:44 51°21.955 2°53.833 6.6 334 10.4 102930 34
2010-05-19 06:20:49 51°21.973 2°53.847 6.8 335 10.4 102930 34
2010-05-19 06:20:54 51°21.991 2°53.862 6.8 335 10.4 102940 35
2010-05-19 06:20:59 51°22.009 2°53.876 6.8 335 10.4 102940 35
2010-05-19 06:21:03 51°22.023 2°53.887 6.6 333 10.4 102940 35
2010-05-19 06:21:09 51°22.045 2°53.904 6.1 335 10.4 102940 35
2010-05-19 06:21:14 51°22.063 2°53.918 6.7 335 10.4 102930 35
2010-05-19 06:21:19 51°22.081 2°53.932 7 335 10.4 102930 35
2010-05-19 06:21:23 51°22.095 2°53.943 6.2 335 10.4 102930 33
2010-05-19 06:21:29 51°22.117 2°53.958 6.4 336 10.4 102930 33
2010-05-19 06:21:34 51°22.136 2°53.971 5.9 334 10.4 102930 34
2010-05-19 06:21:39 51°22.154 2°53.982 7.1 336 10.4 102930 34
2010-05-19 06:21:43 51°22.169 2°53.991 6 336 10.3 102930 33
2010-05-19 06:21:49 51°22.192 2°54.004 6.4 336 10.3 102930 33
2010-05-19 06:21:54 51°22.211 2°54.014 6.7 336 10.3 102940 35
2010-05-19 06:21:59 51°22.23 2°54.023 6.5 336 10.3 102940 35
2010-05-19 06:22:04 51°22.25 2°54.032 6.3 336 10.3 102930 34
2010-05-19 06:22:09 51°22.269 2°54.039 6.1 336 10.3 102930 34
2010-05-19 06:22:14 51°22.288 2°54.048 6.5 336 10.4 102930 35
2010-05-19 06:22:19 51°22.308 2°54.055 6.2 336 10.4 102930 35
2010-05-19 06:22:24 51°22.327 2°54.063 6.2 336 10.4 102930 35
2010-05-19 06:22:29 51°22.347 2°54.07 6.1 336 10.4 102930 35
2010-05-19 06:22:34 51°22.367 2°54.077 7.1 337 10.4 102930 35
2010-05-19 06:22:39 51°22.387 2°54.081 6.6 335 10.4 102930 35
2010-05-19 06:22:44 51°22.407 2°54.087 6.6 284 10.4 102940 35
2010-05-19 06:22:49 51°22.426 2°54.091 6.7 336 10.4 102940 35
2010-05-19 06:22:54 51°22.446 2°54.095 6 337 10.4 102940 35
2010-05-19 06:22:59 51°22.466 2°54.098 5.9 337 10.4 102940 35
2010-05-19 06:23:03 51°22.482 2°54.101 6.8 337 10.4 102930 34
2010-05-19 06:23:09 51°22.506 2°54.104 6.2 337 10.4 102930 34
2010-05-19 06:23:14 51°22.526 2°54.107 6.4 336 10.3 102930 35
2010-05-19 06:23:19 51°22.546 2°54.109 6.5 338 10.3 102930 35
2010-05-19 06:23:23 51°22.562 2°54.111 6.6 338 10.3 102940 34
2010-05-19 06:23:29 51°22.586 2°54.114 6.3 336 10.3 102940 34
2010-05-19 06:23:34 51°22.606 2°54.117 5.9 337 10.3 102930 34
2010-05-19 06:23:39 51°22.626 2°54.119 6.3 336 10.3 102930 34
2010-05-19 06:23:43 51°22.642 2°54.12 5.7 337 10.3 102930 33
2010-05-19 06:23:49 51°22.666 2°54.123 6 335 10.3 102930 33
2010-05-19 06:23:54 51°22.686 2°54.126 6.8 335 10.3 102930 35
2010-05-19 06:23:59 51°22.706 2°54.128 6.6 336 10.3 102930 35
2010-05-19 06:24:03 51°22.722 2°54.13 6.4 336 10.3 102940 35
2010-05-19 06:24:09 51°22.746 2°54.133 6 337 10.3 102940 35
2010-05-19 06:24:14 51°22.766 2°54.136 6.1 337 10.3 102940 34
2010-05-19 06:24:19 51°22.786 2°54.138 5.9 337 10.3 102940 34
2010-05-19 06:24:23 51°22.803 2°54.141 5.9 339 10.4 102930 35
2010-05-19 06:24:29 51°22.827 2°54.143 6.2 337 10.4 102930 35
2010-05-19 06:24:34 51°22.847 2°54.145 6.2 336 10.3 102940 34
2010-05-19 06:24:39 51°22.867 2°54.148 5.8 336 10.3 102940 34
2010-05-19 06:24:43 51°22.883 2°54.15 6.8 336 10.3 102940 33
2010-05-19 06:24:49 51°22.907 2°54.154 6.6 337 10.3 102940 33
2010-05-19 06:24:54 51°22.927 2°54.157 6.3 336 10.3 102930 35
2010-05-19 06:24:59 51°22.947 2°54.16 6.1 336 10.3 102930 35
2010-05-19 06:25:04 51°22.968 2°54.163 6.4 335 10.3 102930 35
2010-05-19 06:25:09 51°22.988 2°54.167 6.5 337 10.3 102930 35
2010-05-19 06:25:14 51°23.008 2°54.169 6.3 336 10.3 102940 35
2010-05-19 06:25:19 51°23.028 2°54.173 6.7 336 10.3 102940 35
2010-05-19 06:25:23 51°23.044 2°54.175 6.7 335 10.3 102930 34
2010-05-19 06:25:29 51°23.068 2°54.18 6.2 335 10.3 102930 34
2010-05-19 06:25:34 51°23.088 2°54.183 6.1 335 10.3 102940 35
2010-05-19 06:25:39 51°23.109 2°54.186 6.4 336 10.3 102940 35
2010-05-19 06:25:44 51°23.129 2°54.19 6.4 336 10.3 102930 32
2010-05-19 06:25:49 51°23.149 2°54.193 6 336 10.3 102930 32
2010-05-19 06:25:54 51°23.169 2°54.196 5.9 336 10.3 102940 35
2010-05-19 06:25:59 51°23.19 2°54.199 6.2 335 10.3 102940 35
2010-05-19 06:26:04 51°23.21 2°54.203 5.9 335 10.3 102940 34
2010-05-19 06:26:09 51°23.23 2°54.206 5.8 335 10.3 102940 34
2010-05-19 06:26:14 51°23.25 2°54.21 6.3 335 10.3 102940 33
2010-05-19 06:26:19 51°23.271 2°54.213 6.8 336 10.3 102940 33
2010-05-19 06:26:24 51°23.291 2°54.216 6.4 335 10.3 102940 33
2010-05-19 06:26:29 51°23.311 2°54.219 6.8 335 10.3 102940 33
2010-05-19 06:26:34 51°23.331 2°54.222 6.1 335 10.3 102940 35
2010-05-19 06:26:39 51°23.352 2°54.225 6.6 335 10.3 102940 35
2010-05-19 06:26:44 51°23.372 2°54.229 6.5 334 10.3 102940 35
2010-05-19 06:26:49 51°23.392 2°54.232 6.6 335 10.3 102940 35
2010-05-19 06:26:54 51°23.412 2°54.236 6.6 333 10.3 102940 35
2010-05-19 06:26:59 51°23.433 2°54.239 6.5 335 10.3 102940 35
2010-05-19 06:27:04 51°23.453 2°54.243 5.8 334 10.3 102940 35
2010-05-19 06:27:09 51°23.473 2°54.247 6.5 333 10.3 102940 35
2010-05-19 06:27:14 51°23.493 2°54.25 6.6 333 10.3 102940 33
2010-05-19 06:27:19 51°23.514 2°54.254 6 334 10.3 102940 33
2010-05-19 06:27:24 51°23.534 2°54.258 6.4 334 10.3 102940 34
2010-05-19 06:27:29 51°23.554 2°54.261 6.1 333 10.3 102940 34
2010-05-19 06:27:34 51°23.575 2°54.264 6.2 333 10.3 102950 35
2010-05-19 06:27:39 51°23.595 2°54.268 6.5 332 10.3 102950 35
2010-05-19 06:27:44 51°23.615 2°54.271 5.8 332 10.3 102940 34
2010-05-19 06:27:49 51°23.635 2°54.274 6.2 331 10.3 102940 34
2010-05-19 06:27:54 51°23.655 2°54.277 6.6 332 10.2 102950 35
2010-05-19 06:27:59 51°23.675 2°54.28 6.1 332 10.2 102950 35
2010-05-19 06:28:03 51°23.691 2°54.282 6.4 330 10.2 102940 33
2010-05-19 06:28:09 51°23.715 2°54.287 6.7 332 10.2 102940 33
2010-05-19 06:28:14 51°23.735 2°54.29 6.4 331 10.2 102940 34
2010-05-19 06:28:19 51°23.755 2°54.294 6.2 331 10.2 102940 34
2010-05-19 06:28:24 51°23.775 2°54.296 6.6 332 10.3 102950 34
2010-05-19 06:28:29 51°23.796 2°54.3 6.2 331 10.3 102950 34
2010-05-19 06:28:34 51°23.816 2°54.302 6.2 284 10.3 102950 35
2010-05-19 06:28:39 51°23.836 2°54.304 6.1 332 10.3 102950 35
2010-05-19 06:28:44 51°23.856 2°54.305 6.5 331 10.3 102940 35
2010-05-19 06:28:49 51°23.876 2°54.307 6.6 330 10.3 102940 35
2010-05-19 06:28:54 51°23.896 2°54.309 5.8 330 10.3 102950 32
2010-05-19 06:28:59 51°23.916 2°54.31 6.4 329 10.3 102950 32
2010-05-19 06:29:04 51°23.937 2°54.311 6.5 330 10.3 102950 34
2010-05-19 06:29:09 51°23.957 2°54.312 6.3 329 10.3 102950 34
2010-05-19 06:29:14 51°23.977 2°54.313 6 330 10.3 102950 33
2010-05-19 06:29:19 51°23.997 2°54.315 6.1 329 10.3 102950 33
2010-05-19 06:29:24 51°24.017 2°54.315 6.8 329 10.2 102950 34
2010-05-19 06:29:29 51°24.037 2°54.318 6 328 10.2 102950 34
2010-05-19 06:29:34 51°24.057 2°54.319 6.1 328 10.3 102950 34
2010-05-19 06:29:39 51°24.078 2°54.321 6.3 329 10.3 102950 34
2010-05-19 06:29:44 51°24.098 2°54.322 6.4 329 10.3 102940 34
2010-05-19 06:29:49 51°24.117 2°54.323 6 328 10.3 102940 34
2010-05-19 06:29:54 51°24.137 2°54.324 6.5 330 10.3 102950 34
2010-05-19 06:29:59 51°24.157 2°54.325 6.6 329 10.3 102950 34
2010-05-19 06:30:03 51°24.173 2°54.327 6.2 328 10.2 102950 35
2010-05-19 06:30:09 51°24.197 2°54.328 6 328 10.2 102950 35
2010-05-19 06:30:14 51°24.217 2°54.33 6.3 329 10.2 102950 34
2010-05-19 06:30:19 51°24.237 2°54.331 6.2 328 10.2 102950 34
2010-05-19 06:30:23 51°24.253 2°54.333 6.3 327 10.2 102950 33
2010-05-19 06:30:29 51°24.277 2°54.335 6.5 327 10.2 102950 33
2010-05-19 06:30:34 51°24.297 2°54.336 6.8 328 10.3 102960 33
2010-05-19 06:30:39 51°24.318 2°54.337 6.6 327 10.3 102960 33
2010-05-19 06:30:43 51°24.334 2°54.339 6.1 327 10.2 102950 35
2010-05-19 06:30:49 51°24.358 2°54.34 6.8 328 10.2 102950 35
2010-05-19 06:30:54 51°24.378 2°54.342 6.1 327 10.2 102950 34
2010-05-19 06:30:59 51°24.398 2°54.343 6 326 10.2 102950 34
2010-05-19 06:31:03 51°24.414 2°54.344 6.2 327 10.3 102950 33
2010-05-19 06:31:09 51°24.438 2°54.345 6.1 328 10.3 102950 33
2010-05-19 06:31:14 51°24.458 2°54.347 6 326 10.3 102950 34
2010-05-19 06:31:19 51°24.478 2°54.348 6.3 327 10.3 102950 34
2010-05-19 06:31:24 51°24.498 2°54.35 6.5 328 10.3 102960 33
2010-05-19 06:31:29 51°24.518 2°54.35 6 328 10.3 102960 33
2010-05-19 06:31:34 51°24.538 2°54.352 6.4 327 10.3 102950 32
2010-05-19 06:31:39 51°24.558 2°54.353 5.8 326 10.3 102950 32
2010-05-19 06:31:44 51°24.579 2°54.355 6.1 327 10.3 102950 35
2010-05-19 06:31:49 51°24.599 2°54.356 6.4 328 10.3 102950 35
2010-05-19 06:31:54 51°24.619 2°54.358 6.2 326 10.3 102950 34
2010-05-19 06:31:59 51°24.639 2°54.36 6.9 327 10.3 102950 34
2010-05-19 06:32:04 51°24.659 2°54.361 6.5 285 10.3 102960 34
2010-05-19 06:32:09 51°24.679 2°54.362 6.1 326 10.3 102960 34
2010-05-19 06:32:14 51°24.7 2°54.363 6.6 326 10.3 102950 34
2010-05-19 06:32:19 51°24.72 2°54.365 6.3 327 10.3 102950 34
2010-05-19 06:32:23 51°24.736 2°54.366 6 327 10.3 102950 35
2010-05-19 06:32:29 51°24.761 2°54.368 6.2 325 10.3 102950 35
2010-05-19 06:32:34 51°24.781 2°54.369 6 327 10.3 102950 34
2010-05-19 06:32:39 51°24.801 2°54.371 6.3 325 10.3 102950 34
2010-05-19 06:32:43 51°24.818 2°54.372 6.1 327 10.3 102960 34
2010-05-19 06:32:49 51°24.842 2°54.374 6.8 326 10.3 102960 34
2010-05-19 06:32:54 51°24.862 2°54.375 5.9 326 10.3 102960 35
2010-05-19 06:32:59 51°24.883 2°54.376 6.1 326 10.3 102960 35
2010-05-19 06:33:03 51°24.899 2°54.377 6.1 325 10.3 102950 35
2010-05-19 06:33:09 51°24.923 2°54.378 6.3 325 10.3 102950 35
2010-05-19 06:33:14 51°24.944 2°54.38 6.7 327 10.3 102950 35
2010-05-19 06:33:19 51°24.964 2°54.381 6 325 10.3 102950 35
2010-05-19 06:33:24 51°24.985 2°54.382 6.7 325 10.3 102960 34
2010-05-19 06:33:29 51°25.005 2°54.383 6.5 327 10.3 102960 34
2010-05-19 06:33:34 51°25.025 2°54.384 6.1 327 10.3 102950 34
2010-05-19 06:33:39 51°25.045 2°54.385 6.9 327 10.3 102950 34
2010-05-19 06:33:44 51°25.065 2°54.386 6.2 326 10.3 102950 33
2010-05-19 06:33:49 51°25.086 2°54.387 6.2 326 10.3 102950 33
2010-05-19 06:33:54 51°25.106 2°54.389 6.8 327 10.3 102950 34
2010-05-19 06:33:59 51°25.126 2°54.39 6.2 327 10.3 102950 34
2010-05-19 06:34:04 51°25.146 2°54.392 6.3 326 10.3 102950 35
2010-05-19 06:34:09 51°25.167 2°54.393 6.5 327 10.3 102950 35
2010-05-19 06:34:14 51°25.187 2°54.395 6.2 325 10.3 102950 34
2010-05-19 06:34:19 51°25.207 2°54.396 6.5 326 10.3 102950 34
2010-05-19 06:34:23 51°25.224 2°54.397 6.6 326 10.3 102950 33
2010-05-19 06:34:29 51°25.248 2°54.399 6.2 327 10.3 102950 33
2010-05-19 06:34:34 51°25.268 2°54.399 6.7 326 10.3 102950 33